| time (UTC) | temp C | wind direction | speed KPH | gust KPH | rain 1hr cm | rain 24hr cm | rain mn cm | humidity % | barometer mb |
| 20260502212006 | 17 | 256 | 3.2 | 14.5 | 0.00 | 0.00 | 0.00 | 32 | 1012.5 |
| 20260502211006 | 17 | 211 | 3.2 | 12.9 | 0.00 | 0.00 | 0.00 | 35 | 1012.5 |
| 20260502210005 | 17 | 264 | 3.2 | 4.8 | 0.00 | 0.00 | 0.00 | 34 | 1012.7 |
| 20260502205505 | 17 | 294 | 1.6 | 4.8 | 0.00 | 0.00 | 0.00 | 34 | 1012.8 |
| 20260502205005 | 17 | 213 | 4.8 | 11.3 | 0.00 | 0.00 | 0.00 | 34 | 1013.0 |
| 20260502204505 | 17 | 158 | 3.2 | 11.3 | 0.00 | 0.00 | 0.00 | 32 | 1013.0 |
| 20260502203005 | 16 | 192 | 4.8 | 11.3 | 0.00 | 0.00 | 0.00 | 32 | 1013.1 |
| 20260502202005 | 16 | 305 | 4.8 | 19.3 | 0.00 | 0.00 | 0.00 | 32 | 1013.5 |
| 20260502201506 | 16 | 269 | 4.8 | 14.5 | 0.00 | 0.00 | 0.00 | 33 | 1013.6 |
| 20260502201005 | 16 | 288 | 4.8 | 16.1 | 0.00 | 0.00 | 0.00 | 32 | 1013.6 |
| 20260502200506 | 16 | 175 | 3.2 | 16.1 | 0.00 | 0.00 | 0.00 | 34 | 1013.7 |
| 20260502200005 | 16 | 163 | 4.8 | 11.3 | 0.00 | 0.00 | 0.00 | 34 | 1013.8 |
| 20260502195505 | 16 | 196 | 8.0 | 12.9 | 0.00 | 0.00 | 0.00 | 32 | 1014.1 |
| 20260502195005 | 16 | 261 | 3.2 | 4.8 | 0.00 | 0.00 | 0.00 | 35 | 1014.0 |
| 20260502194505 | 16 | 165 | 3.2 | 4.8 | 0.00 | 0.00 | 0.00 | 34 | 1014.1 |
| 20260502194005 | 16 | 288 | 3.2 | 12.9 | 0.00 | 0.00 | 0.00 | 32 | 1014.2 |
| 20260502193505 | 16 | 252 | 3.2 | 16.1 | 0.00 | 0.00 | 0.00 | 32 | 1014.3 |
| 20260502193005 | 16 | 175 | 11.3 | 19.3 | 0.00 | 0.00 | 0.00 | 31 | 1014.3 |
| 20260502192506 | 16 | 186 | 4.8 | 12.9 | 0.00 | 0.00 | 0.00 | 34 | 1014.5 |
| 20260502191505 | 16 | 177 | 8.0 | 19.3 | 0.00 | 0.00 | 0.00 | 34 | 1014.7 |
| 20260502190506 | 16 | 176 | 8.0 | 19.3 | 0.00 | 0.00 | 0.00 | 34 | 1014.8 |
| 20260502190005 | 16 | 178 | 6.4 | 19.3 | 0.00 | 0.00 | 0.00 | 34 | 1014.8 |
| 20260502185505 | 16 | 184 | 4.8 | 19.3 | 0.00 | 0.00 | 0.00 | 37 | 1015.0 |
| 20260502185005 | 16 | 276 | 3.2 | 12.9 | 0.00 | 0.00 | 0.00 | 35 | 1015.0 |
| 20260502184505 | 16 | 169 | 4.8 | 12.9 | 0.00 | 0.00 | 0.00 | 34 | 1015.2 |
| 20260502184005 | 16 | 176 | 9.7 | 25.7 | 0.00 | 0.00 | 0.00 | 35 | 1015.2 |
| 20260502183505 | 16 | 161 | 4.8 | 14.5 | 0.00 | 0.00 | 0.00 | 34 | 1015.4 |
| 20260502183005 | 15 | 194 | 4.8 | 14.5 | 0.00 | 0.00 | 0.00 | 34 | 1015.5 |
| 20260502182505 | 15 | 191 | 6.4 | 14.5 | 0.00 | 0.00 | 0.00 | 37 | 1015.6 |
| 20260502182006 | 15 | 186 | 6.4 | 16.1 | 0.00 | 0.00 | 0.00 | 34 | 1015.6 |
| 20260502181505 | 15 | 182 | 8.0 | 19.3 | 0.00 | 0.00 | 0.00 | 36 | 1015.7 |
| 20260502181009 | 15 | 201 | 4.8 | 11.3 | 0.00 | 0.00 | 0.00 | 36 | 1015.7 |
| 20260502180505 | 15 | 185 | 4.8 | 12.9 | 0.00 | 0.00 | 0.00 | 34 | 1015.8 |
| 20260502170505 | 13 | 302 | 3.2 | 12.9 | 0.00 | 0.00 | 0.00 | 36 | 1016.7 |
| 20260502164005 | 13 | 202 | 4.8 | 22.5 | 0.00 | 0.00 | 0.00 | 38 | 1017.0 |
| 20260502163505 | 13 | 293 | 3.2 | 8.0 | 0.00 | 0.00 | 0.00 | 39 | 1017.0 |
| 20260502163006 | 13 | 219 | 4.8 | 16.1 | 0.00 | 0.00 | 0.00 | 37 | 1017.1 |
| 20260502162005 | 13 | 257 | 3.2 | 8.0 | 0.00 | 0.00 | 0.00 | 40 | 1017.1 |
| 20260502161505 | 13 | 264 | 3.2 | 8.0 | 0.00 | 0.00 | 0.00 | 39 | 1017.2 |
| 20260502161005 | 13 | 308 | 4.8 | 12.9 | 0.00 | 0.00 | 0.00 | 40 | 1017.2 |
| 20260502160505 | 13 | 186 | 3.2 | 9.7 | 0.00 | 0.00 | 0.00 | 41 | 1017.2 |
| 20260502151505 | 12 | 299 | 3.2 | 12.9 | 0.00 | 0.00 | 0.00 | 42 | 1017.5 |
| 20260502151005 | 12 | 296 | 4.8 | 12.9 | 0.00 | 0.00 | 0.00 | 43 | 1017.6 |
| 20260502150505 | 12 | 280 | 3.2 | 9.7 | 0.00 | 0.00 | 0.00 | 42 | 1017.6 |
| 20260502130505 | 7 | 167 | 3.2 | 8.0 | 0.00 | 0.00 | 0.00 | 58 | 1018.0 |
| 20260502123506 | 5 | 203 | 3.2 | 4.8 | 0.00 | 0.00 | 0.00 | 61 | 1018.0 |
| 20260502123006 | 5 | 269 | 3.2 | 9.7 | 0.00 | 0.00 | 0.00 | 62 | 1018.0 |
| 20260502122505 | 5 | 204 | 1.6 | 9.7 | 0.00 | 0.00 | 0.00 | 63 | 1018.0 |
| 20260502122005 | 5 | 158 | 1.6 | 4.8 | 0.00 | 0.00 | 0.00 | 62 | 1018.0 |
| 20260502121005 | 4 | 278 | 0.0 | 4.8 | 0.00 | 0.00 | 0.00 | 63 | 1018.0 |
| 20260502120505 | 4 | 278 | 1.6 | 4.8 | 0.00 | 0.00 | 0.00 | 64 | 1017.9 |
| 20260502115506 | 3 | 278 | 1.6 | 3.2 | 0.00 | 0.00 | 0.00 | 64 | 1017.9 |
| 20260502113505 | 3 | 278 | 1.6 | 4.8 | 0.00 | 0.00 | 0.00 | 65 | 1017.8 |
| 20260502113005 | 3 | 278 | 0.0 | 3.2 | 0.00 | 0.00 | 0.00 | 66 | 1017.8 |
| 20260502112505 | 3 | 278 | 1.6 | 3.2 | 0.00 | 0.00 | 0.00 | 67 | 1017.8 |
| 20260502112005 | 3 | 278 | 0.0 | 3.2 | 0.00 | 0.00 | 0.00 | 68 | 1017.8 |
| 20260502111505 | 2 | 278 | 0.0 | 3.2 | 0.00 | 0.00 | 0.00 | 69 | 1017.8 |
| 20260502110005 | 2 | 278 | 0.0 | 1.6 | 0.00 | 0.00 | 0.00 | 71 | 1017.8 |
| 20260502105505 | 2 | 278 | 0.0 | 1.6 | 0.00 | 0.00 | 0.00 | 72 | 1017.7 |
| 20260502104005 | 1 | 355 | 0.0 | 0.0 | 0.00 | 0.00 | 0.00 | 76 | 1017.8 |
| 20260502102505 | 1 | 355 | 0.0 | 0.0 | 0.00 | 0.00 | 0.00 | 78 | 1017.8 |
| 20260502102005 | 1 | 355 | 0.0 | 0.0 | 0.00 | 0.00 | 0.00 | 78 | 1017.7 |
| 20260502101505 | 1 | 355 | 0.0 | 0.0 | 0.00 | 0.00 | 0.00 | 80 | 1017.8 |
| 20260502101005 | 1 | 355 | 0.0 | 0.0 | 0.00 | 0.00 | 0.00 | 79 | 1017.7 |
| 20260502100506 | 1 | 355 | 0.0 | 0.0 | 0.00 | 0.00 | 0.00 | 78 | 1017.7 |
| 20260502091006 | 0 | 355 | 0.0 | 0.0 | 0.00 | 0.00 | 0.00 | 83 | 1017.9 |
| 20260502090507 | 0 | 355 | 0.0 | 0.0 | 0.00 | 0.00 | 0.00 | 83 | 1017.8 |
| 20260502071506 | 1 | 355 | 0.0 | 0.0 | 0.00 | 0.00 | 0.00 | 78 | 1017.8 |
| 20260502071006 | 1 | 355 | 0.0 | 0.0 | 0.00 | 0.00 | 0.00 | 79 | 1017.8 |
| 20260502070506 | 1 | 355 | 0.0 | 0.0 | 0.00 | 0.00 | 0.00 | 79 | 1017.8 |
| 20260502070007 | 1 | 355 | 0.0 | 0.0 | 0.00 | 0.00 | 0.00 | 78 | 1017.9 |
| 20260502065506 | 1 | 355 | 0.0 | 0.0 | 0.00 | 0.00 | 0.00 | 77 | 1017.9 |
| 20260502065006 | 1 | 355 | 0.0 | 0.0 | 0.00 | 0.00 | 0.00 | 77 | 1018.0 |
| 20260502064507 | 1 | 355 | 0.0 | 0.0 | 0.00 | 0.00 | 0.00 | 77 | 1018.0 |
| 20260502063507 | 1 | 355 | 0.0 | 0.0 | 0.00 | 0.00 | 0.00 | 78 | 1018.0 |
| 20260502063007 | 2 | 355 | 0.0 | 0.0 | 0.00 | 0.00 | 0.00 | 77 | 1018.0 |
| 20260502062506 | 2 | 355 | 0.0 | 0.0 | 0.00 | 0.00 | 0.00 | 77 | 1018.0 |
| 20260502062006 | 1 | 355 | 0.0 | 0.0 | 0.00 | 0.00 | 0.00 | 75 | 1018.0 |
| 20260502061506 | 2 | 355 | 0.0 | 0.0 | 0.00 | 0.00 | 0.00 | 75 | 1018.0 |
| 20260502061006 | 2 | 355 | 0.0 | 0.0 | 0.00 | 0.00 | 0.00 | 76 | 1018.1 |
| 20260502060507 | 2 | 355 | 0.0 | 0.0 | 0.00 | 0.00 | 0.00 | 75 | 1018.1 |
| 20260502060006 | 2 | 355 | 0.0 | 0.0 | 0.00 | 0.00 | 0.00 | 71 | 1018.0 |
| 20260502055506 | 2 | 355 | 0.0 | 0.0 | 0.00 | 0.00 | 0.00 | 72 | 1017.9 |
| 20260502055006 | 2 | 355 | 0.0 | 0.0 | 0.00 | 0.00 | 0.00 | 72 | 1018.0 |
| 20260502054506 | 2 | 355 | 0.0 | 0.0 | 0.00 | 0.00 | 0.00 | 73 | 1018.0 |
| 20260502054006 | 2 | 355 | 0.0 | 0.0 | 0.00 | 0.00 | 0.00 | 70 | 1017.9 |
| 20260502053506 | 2 | 355 | 0.0 | 0.0 | 0.00 | 0.00 | 0.00 | 69 | 1017.9 |
| 20260502052506 | 2 | 355 | 0.0 | 0.0 | 0.00 | 0.00 | 0.00 | 69 | 1017.9 |
| 20260502052007 | 2 | 355 | 0.0 | 0.0 | 0.00 | 0.00 | 0.00 | 68 | 1017.9 |
| 20260502051506 | 2 | 355 | 0.0 | 0.0 | 0.00 | 0.00 | 0.00 | 68 | 1017.9 |
| 20260502051006 | 2 | 355 | 0.0 | 0.0 | 0.00 | 0.00 | 0.00 | 64 | 1017.9 |
| 20260502050506 | 2 | 355 | 0.0 | 0.0 | 0.00 | 0.00 | 0.00 | 63 | 1017.9 |
| 20260502050006 | 2 | 355 | 0.0 | 0.0 | 0.00 | 0.00 | 0.00 | 62 | 1017.9 |
| 20260502045506 | 2 | 355 | 0.0 | 0.0 | 0.00 | 0.00 | 0.00 | 62 | 1017.8 |
| 20260502045006 | 2 | 355 | 0.0 | 0.0 | 0.00 | 0.00 | 0.00 | 62 | 1017.8 |
| 20260502044506 | 3 | 355 | 0.0 | 0.0 | 0.00 | 0.00 | 0.00 | 61 | 1017.8 |
| 20260502044007 | 3 | 355 | 0.0 | 0.0 | 0.00 | 0.00 | 0.00 | 61 | 1017.9 |
| 20260502043507 | 3 | 355 | 0.0 | 0.0 | 0.00 | 0.00 | 0.00 | 61 | 1017.9 |
| 20260502042506 | 3 | 355 | 0.0 | 0.0 | 0.00 | 0.00 | 0.00 | 61 | 1017.9 |
| 20260502042006 | 3 | 355 | 0.0 | 0.0 | 0.00 | 0.00 | 0.00 | 60 | 1017.8 |
| 20260502041506 | 3 | 355 | 0.0 | 0.0 | 0.00 | 0.00 | 0.00 | 60 | 1017.8 |
| 20260502041006 | 3 | 355 | 0.0 | 0.0 | 0.00 | 0.00 | 0.00 | 60 | 1017.8 |
| 20260502040506 | 3 | 355 | 0.0 | 0.0 | 0.00 | 0.00 | 0.00 | 60 | 1017.8 |
| 20260502040006 | 3 | 355 | 0.0 | 0.0 | 0.00 | 0.00 | 0.00 | 60 | 1017.8 |
| 20260502035506 | 3 | 355 | 0.0 | 0.0 | 0.00 | 0.00 | 0.00 | 60 | 1017.8 |
| 20260502035006 | 3 | 355 | 0.0 | 0.0 | 0.00 | 0.00 | 0.00 | 60 | 1017.8 |
| 20260502034006 | 3 | 355 | 0.0 | 0.0 | 0.00 | 0.00 | 0.00 | 59 | 1017.8 |
| 20260502033506 | 3 | 355 | 0.0 | 0.0 | 0.00 | 0.00 | 0.00 | 59 | 1017.8 |
| 20260502033006 | 4 | 355 | 0.0 | 0.0 | 0.00 | 0.00 | 0.00 | 59 | 1017.8 |
| 20260502032506 | 4 | 355 | 0.0 | 0.0 | 0.00 | 0.00 | 0.00 | 59 | 1017.8 |
| 20260502031506 | 4 | 355 | 0.0 | 0.0 | 0.00 | 0.00 | 0.00 | 57 | 1017.8 |
| 20260502031007 | 4 | 355 | 0.0 | 0.0 | 0.00 | 0.00 | 0.00 | 57 | 1017.8 |
| 20260502030506 | 5 | 355 | 0.0 | 0.0 | 0.00 | 0.00 | 0.00 | 56 | 1017.8 |
| 20260502030007 | 5 | 355 | 0.0 | 0.0 | 0.00 | 0.00 | 0.00 | 55 | 1017.8 |
| 20260502025506 | 5 | 355 | 0.0 | 0.0 | 0.00 | 0.00 | 0.00 | 54 | 1017.7 |
| 20260502024507 | 5 | 355 | 0.0 | 0.0 | 0.00 | 0.00 | 0.00 | 53 | 1017.7 |
| 20260502024007 | 5 | 355 | 0.0 | 0.0 | 0.00 | 0.00 | 0.00 | 52 | 1017.7 |
| 20260502022506 | 6 | 355 | 0.0 | 0.0 | 0.00 | 0.00 | 0.00 | 52 | 1017.7 |
| 20260502022007 | 6 | 355 | 0.0 | 0.0 | 0.00 | 0.00 | 0.00 | 51 | 1017.7 |
| 20260502021506 | 6 | 355 | 0.0 | 0.0 | 0.00 | 0.00 | 0.00 | 50 | 1017.6 |
| 20260502021006 | 6 | 355 | 0.0 | 0.0 | 0.00 | 0.00 | 0.00 | 51 | 1017.6 |
| 20260502020506 | 6 | 355 | 0.0 | 0.0 | 0.00 | 0.00 | 0.00 | 50 | 1017.6 |
| 20260502020006 | 7 | 355 | 0.0 | 0.0 | 0.00 | 0.00 | 0.00 | 50 | 1017.6 |
| 20260502015506 | 7 | 355 | 0.0 | 0.0 | 0.00 | 0.00 | 0.00 | 50 | 1017.5 |
| 20260502015007 | 7 | 355 | 0.0 | 0.0 | 0.00 | 0.00 | 0.00 | 51 | 1017.5 |
| 20260502013506 | 7 | 355 | 0.0 | 0.0 | 0.00 | 0.00 | 0.00 | 49 | 1017.2 |
| 20260502013006 | 8 | 355 | 0.0 | 0.0 | 0.00 | 0.00 | 0.00 | 50 | 1017.2 |
| 20260502012506 | 8 | 355 | 0.0 | 0.0 | 0.00 | 0.00 | 0.00 | 51 | 1017.2 |
| 20260502012006 | 8 | 355 | 0.0 | 0.0 | 0.00 | 0.00 | 0.00 | 52 | 1017.2 |
| 20260502011506 | 8 | 355 | 0.0 | 0.0 | 0.00 | 0.00 | 0.00 | 48 | 1017.2 |
| 20260502011006 | 8 | 355 | 0.0 | 0.0 | 0.00 | 0.00 | 0.00 | 46 | 1017.2 |
| 20260502010506 | 8 | 355 | 0.0 | 1.6 | 0.00 | 0.00 | 0.00 | 46 | 1017.2 |
| 20260502010006 | 9 | 355 | 0.0 | 1.6 | 0.00 | 0.00 | 0.00 | 43 | 1017.1 |
| 20260502005506 | 9 | 355 | 0.0 | 1.6 | 0.00 | 0.00 | 0.00 | 43 | 1017.1 |
| 20260502004506 | 9 | 322 | 1.6 | 4.8 | 0.00 | 0.00 | 0.00 | 43 | 1016.9 |
| 20260502004006 | 9 | 327 | 0.0 | 3.2 | 0.00 | 0.00 | 0.00 | 43 | 1016.9 |
| 20260502003007 | 9 | 13 | 0.0 | 3.2 | 0.00 | 0.00 | 0.00 | 44 | 1016.9 |
| 20260502002506 | 10 | 13 | 1.6 | 3.2 | 0.00 | 0.00 | 0.00 | 43 | 1016.8 |
| 20260502002006 | 10 | 13 | 0.0 | 3.2 | 0.00 | 0.00 | 0.00 | 41 | 1016.8 |
| 20260502001505 | 10 | 13 | 0.0 | 3.2 | 0.00 | 0.00 | 0.00 | 43 | 1016.8 |
| 20260502001006 | 9 | 13 | 1.6 | 4.8 | 0.00 | 0.00 | 0.00 | 40 | 1016.7 |
| 20260502000007 | 9 | 5 | 1.6 | 3.2 | 0.00 | 0.00 | 0.00 | 41 | 1016.8 |
| 20260501235506 | 9 | 5 | 1.6 | 3.2 | 0.00 | 0.00 | 0.00 | 41 | 1016.7 |
| 20260501235006 | 9 | 5 | 1.6 | 3.2 | 0.00 | 0.00 | 0.00 | 42 | 1016.7 |
| 20260501234506 | 9 | 5 | 1.6 | 3.2 | 0.00 | 0.00 | 0.00 | 42 | 1016.7 |
| 20260501234006 | 10 | 5 | 0.0 | 3.2 | 0.00 | 0.00 | 0.00 | 42 | 1016.7 |
| 20260501233506 | 10 | 5 | 1.6 | 8.0 | 0.00 | 0.00 | 0.00 | 40 | 1016.7 |
| 20260501232506 | 10 | 5 | 1.6 | 8.0 | 0.00 | 0.00 | 0.00 | 40 | 1016.6 |
| 20260501232007 | 10 | 324 | 3.2 | 8.0 | 0.00 | 0.00 | 0.00 | 40 | 1016.7 |
| 20260501231506 | 10 | 320 | 1.6 | 4.8 | 0.00 | 0.00 | 0.00 | 41 | 1016.7 |
| 20260501231006 | 10 | 273 | 3.2 | 4.8 | 0.00 | 0.00 | 0.00 | 41 | 1016.6 |
| 20260501230506 | 10 | 301 | 1.6 | 3.2 | 0.00 | 0.00 | 0.00 | 40 | 1016.6 |
| 20260501225506 | 10 | 291 | 3.2 | 4.8 | 0.00 | 0.00 | 0.00 | 40 | 1016.7 |
| 20260501225006 | 10 | 284 | 1.6 | 4.8 | 0.00 | 0.00 | 0.00 | 42 | 1016.6 |
| 20260501224506 | 10 | 284 | 1.6 | 4.8 | 0.00 | 0.00 | 0.00 | 40 | 1016.6 |
| 20260501224006 | 10 | 284 | 3.2 | 4.8 | 0.00 | 0.00 | 0.00 | 40 | 1016.6 |
| 20260501223506 | 10 | 355 | 0.0 | 3.2 | 0.00 | 0.00 | 0.00 | 39 | 1016.6 |
| 20260501223007 | 10 | 355 | 3.2 | 4.8 | 0.00 | 0.00 | 0.00 | 39 | 1016.6 |
| 20260501222506 | 10 | 326 | 1.6 | 3.2 | 0.00 | 0.00 | 0.00 | 40 | 1016.5 |
| 20260501221505 | 10 | 7 | 3.2 | 11.3 | 0.00 | 0.00 | 0.00 | 37 | 1016.5 |
| 20260501221006 | 10 | 318 | 3.2 | 11.3 | 0.00 | 0.00 | 0.00 | 38 | 1016.6 |
| 20260501220506 | 11 | 343 | 4.8 | 12.9 | 0.00 | 0.00 | 0.00 | 37 | 1016.5 |
| 20260501215506 | 11 | 313 | 3.2 | 19.3 | 0.00 | 0.00 | 0.00 | 39 | 1016.5 |
| 20260501215006 | 11 | 328 | 4.8 | 19.3 | 0.00 | 0.00 | 0.00 | 40 | 1016.4 |
| 20260501214506 | 11 | 312 | 4.8 | 11.3 | 0.00 | 0.00 | 0.00 | 37 | 1016.4 |
| 20260501214006 | 11 | 307 | 3.2 | 11.3 | 0.00 | 0.00 | 0.00 | 38 | 1016.5 |
| 20260501213006 | 11 | 309 | 4.8 | 11.3 | 0.00 | 0.00 | 0.00 | 38 | 1016.5 |
| 20260501212506 | 11 | 346 | 1.6 | 4.8 | 0.00 | 0.00 | 0.00 | 40 | 1016.5 |